Regional Weather Roundup
Issued by NWS Upton, NY

Current Version | Previous Version | Text Only | Print | Product List | Glossary Off
Versions: 1 2 3 4 5 6 7 8 9 10 11 12 13 14 15 16 17 18 19 20 21 22 23 24 25 26 27

000
ASUS41 KOKX 280508
RWROKX

REGIONAL WEATHER ROUNDUP
NATIONAL WEATHER SERVICE NEW YORK NY
100 AM EDT TUE MAR 28 2017

NOTE: "FAIR" INDICATES FEW OR NO CLOUDS BELOW 12,000 FEET WITH NO
SIGNIFICANT WEATHER AND/OR OBSTRUCTIONS TO VISIBILITY.

NYZ071-072-176-178-NJZ106-104-280600-
NEW YORK CITY METRO AREA

CITY           SKY/WX    TMP DP  RH WIND       PRES   REMARKS
Central Park   CLOUDY    46  44  93 NE6       30.01F FOG
Wall St Helipt CLOUDY    48  45  89 NE9       29.99F
LaGuardia APRT CLOUDY    42  39  89 NE10      29.99F
Kennedy INTL   CLOUDY    49  47  93 E5        30.00F
Breezy Point     N/A     46 N/A N/A E6          N/A
Newark/Liberty CLOUDY    49  45  86 NE3       29.98F
Teterboro      CLOUDY    47  45  93 VRB5      29.99F
$$

NYZ177-179-078>081-280600-
LONG ISLAND NEW YORK

CITY           SKY/WX    TMP DP  RH WIND       PRES   REMARKS
Jones Beach      N/A     45 N/A N/A E10         N/A
Matinecock PT  NOT AVBL
Farmingdale    CLOUDY    43  42  97 NE5       30.00F
MacArthur/ISP  FOG       42  42 100 NE5       30.00F VSB 1/4
Shirley        FOG       43  43 100 CALM      30.03S VSB 1/4
Westhampton    FOG       42  41  96 NE6       30.04S VSB 1/2
East Hampton   CLOUDY    39  38  97 CALM      30.02F
Montauk        NOT AVBL
$$

NYZ052-065-067-280600-
HUDSON VALLEY

CITY           SKY/WX    TMP DP  RH WIND       PRES   REMARKS
White Plains   FOG       40  39  97 SE6       29.99S VSB 1/2
Newburgh       CLOUDY    43  43 100 CALM      29.99F
Montgomery     CLOUDY    39  39 100 CALM      29.97F FOG
Poughkeepsie   CLOUDY    37  37 100 CALM      29.97F
Albany         CLOUDY    44  40  85 S3        29.98S
$$

NJZ001-105-106-008-010-013-015-019>022-104-280600-
NEW JERSEY

CITY           SKY/WX    TMP DP  RH WIND       PRES   REMARKS
Newark/Liberty CLOUDY    49  45  86 NE3       29.98F
Teterboro      CLOUDY    47  45  93 VRB5      29.99F
Caldwell       CLOUDY    47  45  93 CALM      30.00S
Somerville     CLOUDY    47  45  93 CALM      29.96F FOG
Linden         CLOUDY    49  46  87 CALM      29.99S
Sussex         CLOUDY    41  40  96 CALM      29.97F FOG
Andover          N/A     43  42  97 CALM      29.97F
Trenton        CLOUDY    50  49  96 E7        29.96F FOG
Millville      CLOUDY    55  53  93 N5        29.94S
Atlantic City  CLOUDY    51  48  89 E3        29.95F
Wrightstown    CLOUDY    48  48  98 E5        29.94F FOG
Toms River     FOG       47  47 100 CALM      29.98F VSB 1/4
Belmar         FOG       47  47 100 E8        29.99F VSB 1/4
$$

PAZ047>061-062-071-280600-
EASTERN PENNSYLVANIA

CITY           SKY/WX    TMP DP  RH WIND       PRES   REMARKS
Philadelphia   CLOUDY    52  50  93 NE5       29.95F FOG
Allentown      PTCLDY    47  44  90 E5        29.96F FOG
Scranton       CLOUDY    49  46  90 E3        29.94F
$$

CTZ002-004>006-009-010-012-RIZ004-006-007-MAZ004-011-015-280600-
SOUTHERN NEW ENGLAND
 IN CT

CITY           SKY/WX    TMP DP  RH WIND       PRES   REMARKS
Bradley INTL   CLOUDY    39  37  92 W5        30.03S
Hartford       CLOUDY    40  38  93 CALM      30.04R
Danbury        FOG       44  44 100 NE5       30.00F VSB 3/4
Wtrbury/Oxford CLOUDY    39  36  87 NE3       30.01F VSB<1/4
Bridgeport     FOG       42  40  92 E6        30.02S VSB 3/4
Meriden        CLOUDY    41  39  93 N3        30.02F FOG
New Haven      CLOUDY    41  40  96 NE5       30.02S FOG
Chester        NOT AVBL
Groton         CLOUDY    43  41  93 N7        30.02S FOG
Wilimantic     CLOUDY    42  40  92 CALM      30.03F

 IN RI

CITY           SKY/WX    TMP DP  RH WIND       PRES   REMARKS
Providence     CLOUDY    41  39  93 N6        30.04R FOG
Block Island   FOG       41  41 100 N3        30.03R VSB 1/4
Westerly       CLOUDY    43  42  97 N5        30.03S FOG
 IN MA

CITY           SKY/WX    TMP DP  RH WIND       PRES   REMARKS
Boston         CLOUDY    37  37 100 N3        30.04S
Worcester      FOG       35  33  92 CALM      30.00S VSB 1/4
Westfield      CLOUDY    38  37  97 CALM      30.02F
Provincetown   CLOUDY    37  37 100 N15       30.02F WCI  28
Nantucket      CLOUDY    38  37  97 N12       30.01S FOG     WCI  30
$$

ANZ330-335-338-340-345-350-353-355-280600-
COASTAL MARINE OBSERVATIONS


STATION/POSITION TIME  SKY/WX   TEMP    WIND        PRES    VSBY  WAVE
                                AIR SEA DIR/SP/G                  HT/PER
                 (UTC)          (F)     (DEG/KT/KT) (MB)    (MI)  (FT/S)
NY HARB ENTRANCE 0350            43 43   50/  6/  8 1016.1          3/ 7
20 S FIRE ISLAND 0450            43 41   50/  8/  8 1015.7          3/ 6
GREAT SOUTH BAY  NOT AVBL
23 SSW MONTAUK P 0350            41 42              1017.3          3/ 6
15 E BARNEGAT LI 0430               43                N/A           3/ 7
HUDSON CANYON    0350            47 45   20/  4/  4 1016.5          3/ 8
KINGS POINT      0442            39 39              1015.8
EXECUTION ROCKS  NOT AVBL
CENTRAL LI SOUND 0430            40      40/  4/  6   N/A           0
EASTERN LI SOUND NOT AVBL
ROBBINS REEF     0448            49     110/  6/  7 1015.7
$$


>>>>>>>>>>>>>>>>>>>>>>>>>>>> KEY <<<<<<<<<<<<<<<<<<<<<<<<<<<
>                                                          <
>     SKY/WX - Sky Condition/Present Weather               <
>     TMP    - Temperature in Fahrenheit                   <
>     DP     - Dew Point in Fahrenheit                     <
>     RH     - Relative Humidity in Percent                <
>     WIND   - Direction (from) and Speed in MPH           <
>     PRES   - Mean Sea Level Pressure (inches of Hg)      <
>     WCI    - Wind Chill Index                            <
>     VSB    - VISIBILITY IN MILES                         <
>     HX     - HEAT INDEX                                  <
>     TC     - TEMPERATURE IN CELSIUS                      <
>     VRB    - VARIABLE WIND DIRECTION                     <
>                                                          <
>>>>>>>>>>>>>>>>>>>>>>>>>>>> KEY <<<<<<<<<<<<<<<<<<<<<<<<<<<




USA.gov is the U.S. government's official web portal to all federal, state and local government web resources and services.